Weather History for KCLS - April, 2014

Change the Weather History Date:

Wednesday, April 9, 2014

  Actual Average (KOLM) Record (KOLM)
Temperature  
Mean Temperature 48 °F 47 °F  
Max Temperature 59 °F 58 °F 76 °F (1949)
Min Temperature 37 °F 37 °F 26 °F (1982)
Degree Days  
Heating Degree Days 17 18  
Month to date heating degree days 163  
Since 1 July heating degree days 4521  
Cooling Degree Days 0 0  
Month to date cooling degree days 0  
Year to date cooling degree days 0  
Moisture  
Dew Point 39 °F    
Average Humidity 76    
Maximum Humidity 100    
Minimum Humidity 42    
Precipitation  
Precipitation 0.00 in 0.13 in 1.44 in (1970)
Month to date precipitation 1.24  
Year to date precipitation 19.64  
Sea Level Pressure  
Sea Level Pressure 30.25 in    
Wind  
Wind Speed 2 mph (West)    
Max Wind Speed 9 mph    
Max Gust Speed -    
Visibility 9 miles    
Events Fog    
T = Trace of Precipitation, MM = Missing Value Source: NWS Daily Summary

Daily Weather History Graph

Daily Weather History Graph

Search for Another Location

Airport or City:

Trip Planner

Search our weather history database for the weather conditions in past years. The results will help you decide how hot, cold, wet, or windy it might be!

Date:

Astronomy

Apr. 09, 2014 Rise Set
Actual Time 6:35 AM PDT 7:52 PM PDT
Civil Twilight 6:04 AM PDT 8:23 PM PDT
Nautical Twilight 5:26 AM PDT 9:01 PM PDT
Astronomical Twilight 4:46 AM PDT 9:41 PM PDT
Moon 2:27 PM PDT (4/9) 3:46 AM PDT (4/9)
Length of Visible Light 14h 18m
Length of Day
13h 16m
Waxing Gibbous, 72% of the Moon is Illuminated
Apr 9
Waxing Gibbous
Apr 15
Full
Apr 22
Last Quarter
Apr 28
New
May 6
First Quarter

Hourly Weather History & Observations

Time (PDT) Temp. Windchill Dew Point Humidity Pressure Visibility Wind Dir Wind Speed Gust Speed Precip Events Conditions
12:15 AM 46.4 °F - 44.6 °F 93% 30.20 in 10.0 mi Calm Calm - N/A   Clear
12:35 AM 44.6 °F 43.1 °F 42.8 °F 93% 30.21 in 10.0 mi SSW 3.5 mph - N/A   Clear
12:55 AM 44.6 °F 43.1 °F 42.8 °F 93% 30.22 in 10.0 mi South 3.5 mph - N/A   Clear
1:15 AM 44.6 °F 42.2 °F 41.0 °F 87% 30.22 in 10.0 mi South 4.6 mph - N/A   Clear
1:35 AM 44.6 °F 42.2 °F 41.0 °F 87% 30.22 in 10.0 mi South 4.6 mph - N/A   Clear
1:55 AM 44.6 °F 42.2 °F 42.8 °F 93% 30.22 in 10.0 mi South 4.6 mph - N/A   Clear
2:15 AM 44.6 °F 42.2 °F 41.0 °F 87% 30.22 in 9.0 mi South 4.6 mph - N/A   Clear
2:35 AM 42.8 °F 39.3 °F 41.0 °F 93% 30.22 in 8.0 mi SSW 5.8 mph - N/A   Clear
2:55 AM 41.0 °F 38.0 °F 41.0 °F 100% 30.23 in 9.0 mi SW 4.6 mph - N/A   Clear
3:15 AM 41.0 °F - 41.0 °F 100% 30.23 in 10.0 mi Calm Calm - N/A   Clear
3:35 AM 39.2 °F - 39.2 °F 100% 30.23 in 5.0 mi Calm Calm - N/A   Clear
3:55 AM 39.2 °F - 39.2 °F 100% 30.24 in 5.0 mi Calm Calm - N/A   Clear
4:15 AM 39.2 °F - 39.2 °F 100% 30.24 in 7.0 mi Calm Calm - N/A   Scattered Clouds
4:35 AM 39.2 °F - 39.2 °F 100% 30.24 in 4.0 mi Calm Calm - N/A   Partly Cloudy
4:55 AM 37.4 °F - 37.4 °F 100% 30.24 in 2.0 mi Calm Calm - N/A   Clear
5:15 AM 37.4 °F - 37.4 °F 100% 30.24 in 0.8 mi Calm Calm - N/A   Mist
5:35 AM 37.4 °F 34.9 °F 37.4 °F 100% 30.23 in 3.0 mi SW 3.5 mph - N/A   Scattered Clouds
5:55 AM 37.4 °F 33.8 °F 37.4 °F 100% 30.23 in 0.2 mi SW 4.6 mph - N/A Fog Fog
6:15 AM 37.4 °F 34.9 °F 37.4 °F 100% 30.24 in 0.2 mi SW 3.5 mph - N/A Fog Fog
6:35 AM 39.2 °F 37.0 °F 39.2 °F 100% 30.24 in 3.0 mi SW 3.5 mph - N/A   Overcast
6:55 AM 39.2 °F 35.9 °F 39.2 °F 100% 30.25 in 9.0 mi SSW 4.6 mph - N/A   Overcast
7:15 AM 39.2 °F - 39.2 °F 100% 30.25 in 9.0 mi Calm Calm - N/A   Overcast
7:35 AM 39.2 °F - 39.2 °F 100% 30.26 in 5.0 mi Calm Calm - N/A   Overcast
7:55 AM 39.2 °F - 39.2 °F 100% 30.27 in 5.0 mi Calm Calm - N/A   Overcast
8:15 AM 41.0 °F - 41.0 °F 100% 30.28 in 5.0 mi Calm Calm - N/A   Overcast
8:35 AM 41.0 °F - 41.0 °F 100% 30.28 in 8.0 mi Calm Calm - N/A   Overcast
8:55 AM 42.8 °F - 42.8 °F 100% 30.29 in 10.0 mi Calm Calm - N/A   Overcast
9:15 AM 44.6 °F - 42.8 °F 93% 30.29 in 10.0 mi Calm Calm - N/A   Overcast
9:35 AM 44.6 °F - 42.8 °F 93% 30.30 in 10.0 mi Calm Calm - N/A   Mostly Cloudy
9:55 AM 46.4 °F - 42.8 °F 87% 30.30 in 10.0 mi Calm Calm - N/A   Overcast
10:15 AM 48.2 °F - 42.8 °F 82% 30.30 in 10.0 mi Calm Calm - N/A   Overcast
10:55 AM 50.0 °F - 42.8 °F 76% 30.30 in 10.0 mi Calm Calm - N/A   Overcast
11:15 AM 50.0 °F - 41.0 °F 71% 30.31 in 10.0 mi Calm Calm - N/A   Overcast
11:35 AM 53.6 °F - 42.8 °F 67% 30.31 in 10.0 mi SW 3.5 mph - N/A   Mostly Cloudy
11:55 AM 53.6 °F - 42.8 °F 67% 30.30 in 10.0 mi SW 4.6 mph - N/A   Mostly Cloudy
12:15 PM 55.4 °F - 41.0 °F 58% 30.30 in 9.0 mi SE 3.5 mph - N/A   Mostly Cloudy
12:35 PM 55.4 °F - 41.0 °F 58% 30.30 in 10.0 mi North 4.6 mph - N/A   Scattered Clouds
12:55 PM 55.4 °F - 39.2 °F 54% 30.30 in 10.0 mi West 3.5 mph - N/A   Partly Cloudy
1:15 PM 57.2 °F - 37.4 °F 48% 30.29 in 10.0 mi Calm Calm - N/A   Clear
1:35 PM 57.2 °F - 37.4 °F 48% 30.29 in 10.0 mi Calm Calm - N/A   Clear
1:55 PM 57.2 °F - 37.4 °F 48% 30.28 in 10.0 mi Calm Calm - N/A   Clear
2:15 PM 59.0 °F - 35.6 °F 42% 30.28 in 10.0 mi ENE 5.8 mph - N/A   Partly Cloudy
2:35 PM 57.2 °F - 35.6 °F 44% 30.27 in 10.0 mi North 5.8 mph - N/A   Partly Cloudy
2:55 PM 59.0 °F - 37.4 °F 45% 30.27 in 10.0 mi NE 4.6 mph - N/A   Partly Cloudy
3:15 PM 59.0 °F - 35.6 °F 42% 30.26 in 10.0 mi WSW 3.5 mph - N/A   Scattered Clouds
3:35 PM 57.2 °F - 35.6 °F 44% 30.26 in 10.0 mi Calm Calm - N/A   Mostly Cloudy
3:55 PM 59.0 °F - 35.6 °F 42% 30.25 in 8.0 mi NNW 4.6 mph - N/A   Mostly Cloudy
4:15 PM 59.0 °F - 35.6 °F 42% 30.25 in 10.0 mi NE 5.8 mph - N/A   Mostly Cloudy
4:35 PM 59.0 °F - 37.4 °F 45% 30.25 in 10.0 mi North 5.8 mph - N/A   Mostly Cloudy
4:55 PM 59.0 °F - 35.6 °F 42% 30.24 in 10.0 mi NNE 9.2 mph - N/A   Mostly Cloudy
5:15 PM 59.0 °F - 35.6 °F 42% 30.24 in 10.0 mi North 5.8 mph - N/A   Mostly Cloudy
5:35 PM 57.2 °F - 35.6 °F 44% 30.23 in 10.0 mi NNW 5.8 mph - N/A   Partly Cloudy
5:55 PM 57.2 °F - 37.4 °F 48% 30.23 in 10.0 mi NNW 5.8 mph - N/A   Clear
6:15 PM 57.2 °F - 37.4 °F 48% 30.23 in 10.0 mi NW 6.9 mph - N/A   Clear
6:35 PM 55.4 °F - 37.4 °F 51% 30.23 in 10.0 mi NW 5.8 mph - N/A   Clear
6:55 PM 55.4 °F - 39.2 °F 54% 30.23 in 10.0 mi NW 5.8 mph - N/A   Clear
7:15 PM 53.6 °F - 41.0 °F 62% 30.23 in 10.0 mi NW 6.9 mph - N/A   Clear
7:35 PM 51.8 °F - 41.0 °F 67% 30.23 in 10.0 mi WNW 4.6 mph - N/A   Clear
7:55 PM 50.0 °F - 39.2 °F 66% 30.23 in 10.0 mi NW 4.6 mph - N/A   Clear
8:15 PM 50.0 °F - 39.2 °F 66% 30.24 in 10.0 mi Calm Calm - N/A   Clear
8:35 PM 48.2 °F - 39.2 °F 71% 30.24 in 10.0 mi WNW 3.5 mph - N/A   Clear
8:55 PM 48.2 °F - 39.2 °F 71% 30.24 in 9.0 mi Calm Calm - N/A   Clear
9:15 PM 46.4 °F 45.2 °F 39.2 °F 76% 30.25 in 10.0 mi West 3.5 mph - N/A   Clear
9:35 PM 46.4 °F - 39.2 °F 76% 30.25 in 10.0 mi Calm Calm - N/A   Clear
9:55 PM 46.4 °F - 39.2 °F 76% 30.25 in 10.0 mi Calm Calm - N/A   Clear
10:15 PM 46.4 °F - 39.2 °F 76% 30.26 in 9.0 mi Calm Calm - N/A   Clear
10:35 PM 44.6 °F 43.1 °F 39.2 °F 81% 30.27 in 10.0 mi SW 3.5 mph - N/A   Clear
10:55 PM 44.6 °F - 39.2 °F 81% 30.27 in 10.0 mi Calm Calm - N/A   Clear
11:15 PM 42.8 °F 41.1 °F 39.2 °F 87% 30.27 in 10.0 mi West 3.5 mph - N/A   Clear
11:35 PM 41.0 °F - 39.2 °F 93% 30.27 in 10.0 mi Calm Calm - N/A   Clear
11:55 PM 41.0 °F - 39.2 °F 93% 30.27 in 9.0 mi Calm Calm - N/A   Clear